This demonstration page uses our WeatherBlox Daily Observations layout. Learn more.

Left ArrowRight Arrow

Hourly Observations for November 6, 2016

Temp ( °F °C ) Dew Point ( °F °C ) Humidity (%) Winds ( mph kmh ) Pressure ( in mb ) Visibility ( mi km ) Precip ( " mm )
12:59 am 00:59 Clear 46 7.8 42 5.6 86 86 Calm 30.29 1026 10 16 0.00 0.00
1:59 am 01:59 Clear 47 8.3 43 6.1 86 86 SW 3 6 30.28 1026 10 16 0.00 0.00
1:59 am 01:59 Clear 47 8.3 43 6.1 86 86 WSW 5 7 30.28 1026 10 16 0.00 0.00
2:59 am 02:59 Clear 48 8.9 44 6.7 86 86 WSW 5 7 30.27 1025 10 16 0.00 0.00
3:59 am 03:59 Clear 49 9.4 43 6.1 80 80 W 3 6 30.27 1025 10 16 0.00 0.00
4:59 am 04:59 Clear 52 11.1 44 6.7 75 75 WNW 9 15 30.28 1025 10 16 0.00 0.00
5:59 am 05:59 Clear 52 11.1 43 6.1 72 72 W 5 7 30.28 1025 10 16 0.00 0.00
6:59 am 06:59 Mostly Sunny 49 9.4 45 7.2 86 86 SW 5 7 30.29 1026 10 16 0.00 0.00
7:59 am 07:59 Mostly Sunny 56 13.3 48 8.9 75 75 VRB 3 6 30.31 1026 10 16 0.00 0.00
8:59 am 08:59 Mostly Sunny 59 15 47 8.3 64 64 NNW 13 20 30.32 1027 10 16 0.00 0.00
9:59 am 09:59 Mostly Sunny 65 18.3 46 7.8 51 51 NNW 14 22 30.31 1026 10 16 0.00 0.00
10:59 am 10:59 Mostly Sunny 67 19.4 45 7.2 45 45 NNW 17 28 30.29 1026 10 16 0.00 0.00
11:59 am 11:59 Mostly Sunny 69 20.6 46 7.8 44 44 N 8 13 30.27 1025 10 16 0.00 0.00
12:59 pm 12:59 Mostly Sunny 70 21.1 46 7.8 42 42 N 9 15 30.25 1025 10 16 0.00 0.00
1:59 pm 13:59 Partly Cloudy 69 20.6 44 6.7 41 41 NNE 12 19 30.24 1024 10 16 0.00 0.00
2:59 pm 14:59 Mostly Cloudy 68 20 46 7.8 45 45 N 8 13 30.24 1024 10 16 0.00 0.00
3:59 pm 15:59 Mostly Cloudy 67 19.4 43 6.1 42 42 NNW 12 19 30.24 1024 10 16 0.00 0.00
4:59 pm 16:59 Partly Cloudy 63 17.2 45 7.2 52 52 NNE 12 19 30.26 1025 10 16 0.00 0.00
5:59 pm 17:59 Clear 62 16.7 46 7.8 56 56 N 15 24 30.29 1026 10 16 0.00 0.00
6:59 pm 18:59 Clear 61 16.1 44 6.7 54 54 N 10 17 30.29 1026 10 16 0.00 0.00
7:59 pm 19:59 Clear 61 16.1 40 4.4 46 46 N 15 24 30.32 1027 10 16 0.00 0.00
8:59 pm 20:59 Clear 60 15.6 37 2.8 42 42 NNE 14 22 30.33 1027 10 16 0.00 0.00
9:59 pm 21:59 Clear 60 15.6 39 3.9 46 46 NE 15 24 30.33 1027 10 16 0.00 0.00
10:59 pm 22:59 Clear 58 14.4 33 0.6 39 39 NNE 17 28 30.35 1028 10 16 0.00 0.00
11:59 pm 23:59 Clear 56 13.3 34 1.1 44 44 NE 12 19 30.35 1028 10 16 0.00 0.00

Powered by AerisWeather